| time (UTC) | temp F | wind direction | speed knots | gust knots | rain 1hr in | rain 24hr in | rain mn in | humidity % | barometer mb |
| 20260507111532 | 55 | 360 | 3.5 | 6.1 | 0.00 | 0.12 | 0.03 | 83 | 1009.5 |
| 20260507110038 | 55 | 346 | 3.5 | 8.7 | 0.00 | 0.12 | 0.03 | 84 | 1009.7 |
| 20260507104536 | 55 | 311 | 3.5 | 7.8 | 0.00 | 0.12 | 0.03 | 84 | 1009.4 |
| 20260507103032 | 55 | 46 | 2.6 | 5.2 | 0.00 | 0.12 | 0.03 | 84 | 1009.1 |
| 20260507101539 | 55 | 49 | 2.6 | 7.8 | 0.00 | 0.12 | 0.03 | 83 | 1009.1 |
| 20260507100037 | 55 | 55 | 3.5 | 5.2 | 0.00 | 0.12 | 0.03 | 83 | 1009.1 |
| 20260507094533 | 55 | 333 | 2.6 | 7.8 | 0.00 | 0.12 | 0.03 | 84 | 1009.1 |
| 20260507093041 | 55 | 32 | 3.5 | 7.0 | 0.00 | 0.12 | 0.03 | 85 | 1009.0 |
| 20260507091533 | 55 | 337 | 2.6 | 6.1 | 0.00 | 0.12 | 0.03 | 86 | 1009.2 |
| 20260507090034 | 55 | 346 | 3.5 | 9.6 | 0.00 | 0.12 | 0.03 | 86 | 1008.8 |
| 20260507084536 | 56 | 66 | 4.3 | 8.7 | 0.00 | 0.12 | 0.03 | 88 | 1008.7 |
| 20260507083038 | 56 | 64 | 4.3 | 7.8 | 0.00 | 0.12 | 0.03 | 89 | 1008.8 |
| 20260507081534 | 56 | 115 | 1.7 | 4.3 | 0.00 | 0.12 | 0.03 | 90 | 1009.1 |
| 20260507080047 | 56 | 355 | 3.5 | 8.7 | 0.00 | 0.12 | 0.03 | 89 | 1008.7 |
| 20260507074535 | 56 | 44 | 2.6 | 6.1 | 0.00 | 0.12 | 0.03 | 89 | 1008.3 |
| 20260507073035 | 57 | 48 | 1.7 | 7.0 | 0.00 | 0.12 | 0.03 | 89 | 1008.0 |
| 20260507071557 | 57 | 55 | 2.6 | 7.8 | 0.00 | 0.12 | 0.03 | 88 | 1008.1 |
| 20260507070040 | 57 | 332 | 3.5 | 8.7 | 0.00 | 0.12 | 0.03 | 88 | 1008.3 |
| 20260507064540 | 57 | 348 | 3.5 | 12.2 | 0.00 | 0.12 | 0.03 | 88 | 1008.0 |
| 20260507063041 | 57 | 28 | 5.2 | 16.5 | 0.01 | 0.12 | 0.03 | 89 | 1008.2 |
| 20260507061530 | 58 | 334 | 6.1 | 13.0 | 0.02 | 0.12 | 0.03 | 90 | 1008.2 |
| 20260507060028 | 58 | 21 | 4.3 | 9.6 | 0.02 | 0.12 | 0.03 | 90 | 1007.3 |
| 20260507054528 | 59 | 57 | 3.5 | 9.6 | 0.02 | 0.12 | 0.03 | 90 | 1006.6 |
| 20260507053029 | 59 | 44 | 5.2 | 15.6 | 0.02 | 0.11 | 0.02 | 89 | 1007.3 |
| 20260507051528 | 61 | 324 | 5.2 | 12.2 | 0.01 | 0.09 | 0.01 | 88 | 1008.1 |
| 20260507050029 | 62 | 355 | 4.3 | 9.6 | 0.01 | 0.09 | 0.01 | 87 | 1008.2 |
| 20260507044526 | 64 | 9 | 4.3 | 8.7 | 0.01 | 0.09 | 0.01 | 86 | 1007.7 |
| 20260507043034 | 66 | 319 | 5.2 | 13.0 | 0.00 | 0.09 | 0.00 | 86 | 1008.0 |
| 20260507041529 | 67 | 352 | 1.7 | 5.2 | 0.00 | 0.09 | 0.00 | 85 | 1007.4 |
| 20260507040027 | 67 | 288 | 0.9 | 4.3 | 0.00 | 0.09 | 0.00 | 84 | 1007.6 |
| 20260507034530 | 67 | 339 | 0.0 | 0.0 | 0.00 | 0.09 | 0.09 | 83 | 1007.2 |
| 20260507033028 | 67 | 233 | 0.0 | 0.0 | 0.00 | 0.09 | 0.09 | 83 | 1007.0 |
| 20260507031528 | 67 | 288 | 0.0 | 0.0 | 0.00 | 0.09 | 0.09 | 82 | 1007.3 |
| 20260507030032 | 68 | 335 | 0.0 | 0.0 | 0.00 | 0.09 | 0.09 | 82 | 1007.3 |
| 20260507024529 | 68 | 293 | 0.0 | 0.0 | 0.00 | 0.09 | 0.09 | 82 | 1007.2 |
| 20260507023030 | 68 | 250 | 0.0 | 0.0 | 0.00 | 0.09 | 0.09 | 81 | 1006.7 |
| 20260507021528 | 68 | 165 | 0.0 | 2.6 | 0.00 | 0.09 | 0.09 | 81 | 1006.3 |
| 20260507020033 | 68 | 248 | 0.0 | 0.0 | 0.00 | 0.09 | 0.09 | 81 | 1007.0 |
| 20260507014528 | 68 | 202 | 0.0 | 0.9 | 0.00 | 0.09 | 0.09 | 80 | 1007.0 |
| 20260507013036 | 69 | 244 | 0.0 | 3.5 | 0.00 | 0.09 | 0.09 | 80 | 1007.2 |
| 20260507011537 | 69 | 260 | 2.6 | 4.3 | 0.00 | 0.09 | 0.09 | 80 | 1007.1 |
| 20260507010030 | 69 | 194 | 2.6 | 7.8 | 0.00 | 0.09 | 0.09 | 79 | 1006.4 |
| 20260507004527 | 69 | 239 | 4.3 | 6.1 | 0.00 | 0.09 | 0.09 | 79 | 1006.4 |
| 20260507003029 | 69 | 198 | 4.3 | 8.7 | 0.00 | 0.09 | 0.09 | 79 | 1006.2 |
| 20260507001533 | 70 | 223 | 3.5 | 12.2 | 0.00 | 0.09 | 0.09 | 79 | 1006.5 |
| 20260507000028 | 70 | 192 | 4.3 | 10.4 | 0.00 | 0.09 | 0.09 | 78 | 1006.4 |
| 20260506234540 | 70 | 204 | 6.1 | 10.4 | 0.00 | 0.09 | 0.09 | 77 | 1006.2 |
| 20260506233028 | 71 | 148 | 7.0 | 13.0 | 0.00 | 0.09 | 0.09 | 77 | 1005.9 |
| 20260506231535 | 70 | 175 | 7.0 | 13.9 | 0.00 | 0.09 | 0.09 | 77 | 1006.0 |
| 20260506230030 | 71 | 191 | 4.3 | 13.0 | 0.00 | 0.09 | 0.09 | 76 | 1006.1 |
| 20260506224531 | 71 | 194 | 6.1 | 13.0 | 0.00 | 0.09 | 0.09 | 75 | 1006.2 |
| 20260506223027 | 71 | 180 | 9.6 | 15.6 | 0.00 | 0.09 | 0.09 | 74 | 1006.0 |
| 20260506221529 | 72 | 218 | 11.3 | 22.6 | 0.00 | 0.09 | 0.09 | 73 | 1006.0 |
| 20260506220032 | 72 | 171 | 7.0 | 19.1 | 0.00 | 0.09 | 0.09 | 74 | 1006.0 |
| 20260506214529 | 72 | 246 | 7.8 | 19.1 | 0.00 | 0.09 | 0.09 | 73 | 1005.9 |
| 20260506213030 | 71 | 214 | 7.0 | 17.4 | 0.00 | 0.09 | 0.09 | 74 | 1006.2 |
| 20260506211529 | 71 | 201 | 10.4 | 16.5 | 0.00 | 0.09 | 0.09 | 74 | 1006.0 |
| 20260506210030 | 71 | 234 | 5.2 | 13.0 | 0.00 | 0.09 | 0.09 | 75 | 1006.1 |
| 20260506204534 | 70 | 196 | 9.6 | 18.2 | 0.00 | 0.09 | 0.09 | 75 | 1005.9 |
| 20260506203034 | 70 | 199 | 7.8 | 17.4 | 0.00 | 0.09 | 0.09 | 76 | 1006.1 |
| 20260506201530 | 69 | 211 | 10.4 | 19.1 | 0.00 | 0.09 | 0.09 | 76 | 1006.0 |
| 20260506200044 | 68 | 240 | 8.7 | 15.6 | 0.00 | 0.09 | 0.09 | 78 | 1006.0 |
| 20260506194530 | 67 | 196 | 7.8 | 16.5 | 0.00 | 0.09 | 0.09 | 79 | 1006.0 |
| 20260506193031 | 67 | 220 | 9.6 | 15.6 | 0.00 | 0.09 | 0.09 | 80 | 1006.1 |
| 20260506191533 | 67 | 213 | 9.6 | 16.5 | 0.00 | 0.09 | 0.09 | 80 | 1006.6 |
| 20260506190037 | 67 | 190 | 7.8 | 13.9 | 0.00 | 0.09 | 0.09 | 80 | 1006.7 |
| 20260506184538 | 67 | 157 | 5.2 | 12.2 | 0.00 | 0.09 | 0.09 | 80 | 1007.0 |
| 20260506183034 | 67 | 196 | 8.7 | 19.1 | 0.00 | 0.09 | 0.09 | 79 | 1006.8 |
| 20260506181534 | 67 | 186 | 5.2 | 16.5 | 0.00 | 0.09 | 0.09 | 80 | 1007.6 |
| 20260506180031 | 66 | 186 | 5.2 | 13.0 | 0.00 | 0.09 | 0.09 | 80 | 1007.2 |
| 20260506174533 | 66 | 161 | 7.0 | 13.0 | 0.00 | 0.09 | 0.09 | 81 | 1007.3 |
| 20260506173037 | 65 | 213 | 7.8 | 18.2 | 0.00 | 0.09 | 0.09 | 82 | 1007.5 |
| 20260506171536 | 65 | 215 | 7.0 | 20.0 | 0.00 | 0.09 | 0.09 | 82 | 1007.6 |
| 20260506170035 | 65 | 124 | 9.6 | 20.0 | 0.00 | 0.09 | 0.09 | 83 | 1007.6 |
| 20260506164532 | 65 | 201 | 7.8 | 14.8 | 0.00 | 0.09 | 0.09 | 84 | 1008.0 |
| 20260506163053 | 64 | 194 | 11.3 | 19.1 | 0.00 | 0.09 | 0.09 | 85 | 1007.8 |
| 20260506161530 | 63 | 203 | 12.2 | 21.7 | 0.00 | 0.09 | 0.09 | 86 | 1008.2 |
| 20260506160036 | 63 | 202 | 6.1 | 15.6 | 0.00 | 0.09 | 0.09 | 88 | 1008.2 |
| 20260506154538 | 62 | 184 | 7.0 | 15.6 | 0.02 | 0.09 | 0.09 | 88 | 1008.1 |
| 20260506153033 | 62 | 144 | 7.0 | 15.6 | 0.02 | 0.09 | 0.09 | 88 | 1008.1 |
| 20260506151537 | 62 | 228 | 8.7 | 14.8 | 0.08 | 0.09 | 0.09 | 88 | 1007.9 |
| 20260506150032 | 62 | 203 | 8.7 | 15.6 | 0.08 | 0.09 | 0.09 | 88 | 1008.1 |
| 20260506144529 | 62 | 186 | 11.3 | 20.9 | 0.06 | 0.07 | 0.07 | 87 | 1008.3 |
| 20260506143033 | 63 | 151 | 7.8 | 13.0 | 0.06 | 0.07 | 0.07 | 85 | 1008.7 |
| 20260506141533 | 63 | 197 | 8.7 | 13.0 | 0.01 | 0.01 | 0.01 | 84 | 1008.7 |
| 20260506140036 | 63 | 226 | 5.2 | 10.4 | 0.01 | 0.01 | 0.01 | 83 | 1008.5 |
| 20260506134540 | 63 | 130 | 7.0 | 11.3 | 0.01 | 0.01 | 0.01 | 82 | 1008.2 |
| 20260506133033 | 63 | 235 | 5.2 | 12.2 | 0.01 | 0.01 | 0.01 | 81 | 1008.3 |
| 20260506131537 | 64 | 203 | 7.8 | 14.8 | 0.00 | 0.00 | 0.00 | 78 | 1008.5 |
| 20260506130033 | 64 | 196 | 7.8 | 12.2 | 0.00 | 0.00 | 0.00 | 77 | 1008.6 |
| 20260506124543 | 65 | 211 | 5.2 | 12.2 | 0.00 | 0.00 | 0.00 | 75 | 1008.5 |
| 20260506123040 | 65 | 215 | 7.0 | 13.9 | 0.00 | 0.00 | 0.00 | 73 | 1008.2 |
| 20260506121557 | 65 | 205 | 7.0 | 17.4 | 0.00 | 0.00 | 0.00 | 72 | 1008.3 |
| 20260506120049 | 65 | 210 | 7.0 | 13.0 | 0.00 | 0.00 | 0.00 | 71 | 1008.4 |
| 20260506114542 | 65 | 235 | 11.3 | 20.0 | 0.00 | 0.00 | 0.00 | 72 | 1008.4 |
| 20260506113040 | 66 | 247 | 8.7 | 15.6 | 0.00 | 0.00 | 0.00 | 71 | 1008.4 |